Time,TemperatureF,DewpointF,PressureIn,WindDirection,WindDirectionDegrees,WindSpeedMPH,WindSpeedGustMPH,Humidity,HourlyPrecipIn,Conditions,Clouds,dailyrainin,SoftwareType,DateUTC
2013-03-12 00:00:00,36.9,20.8,29.68,WNW,292,10.0,12.0,52,0.00,,,0.41,meteohub,2013-03-12 04:00:00,
2013-03-12 00:03:00,36.9,21.4,29.68,SSW,202,9.0,12.0,53,0.00,,,0.41,meteohub,2013-03-12 04:03:00,
2013-03-12 00:04:00,36.9,21.4,29.68,WNW,292,7.0,12.0,53,0.00,,,0.41,meteohub,2013-03-12 04:04:00,
2013-03-12 00:10:00,36.7,21.6,29.68,West,270,8.0,12.0,54,0.00,,,0.41,meteohub,2013-03-12 04:10:00,
2013-03-12 00:15:00,36.7,21.2,29.70,WSW,248,11.0,14.0,53,0.00,,,0.00,meteohub,2013-03-12 04:15:00,
2013-03-12 00:27:00,36.7,21.2,29.70,WNW,292,7.0,14.0,53,0.00,,,0.00,meteohub,2013-03-12 04:27:00,
2013-03-12 00:32:00,36.7,21.2,29.70,WNW,292,7.0,14.0,53,0.00,,,0.00,meteohub,2013-03-12 04:32:00,
2013-03-12 00:37:00,36.7,21.6,29.70,WSW,248,6.0,12.0,54,0.00,,,0.00,meteohub,2013-03-12 04:37:00,
2013-03-12 00:47:00,36.7,22.1,29.70,WNW,292,8.0,11.0,55,0.00,,,0.00,meteohub,2013-03-12 04:47:00,
2013-03-12 01:07:00,36.9,20.5,29.70,West,270,11.0,14.0,51,0.00,,,0.00,meteohub,2013-03-12 05:07:00,
2013-03-12 01:12:00,36.7,20.8,29.70,West,270,6.0,14.0,52,0.00,,,0.00,meteohub,2013-03-12 05:12:00,
2013-03-12 01:17:00,36.7,21.2,29.70,WSW,248,8.0,14.0,53,0.00,,,0.00,meteohub,2013-03-12 05:17:00,
2013-03-12 01:22:00,36.5,21.9,29.70,WSW,248,4.0,11.0,55,0.00,,,0.00,meteohub,2013-03-12 05:22:00,
2013-03-12 01:28:00,36.5,22.3,29.70,WSW,248,5.0,11.0,56,0.00,,,0.00,meteohub,2013-03-12 05:28:00,
2013-03-12 01:33:00,36.5,21.9,29.70,WSW,248,10.0,11.0,55,0.00,,,0.00,meteohub,2013-03-12 05:33:00,
2013-03-12 01:38:00,36.5,21.6,29.70,West,270,8.0,13.0,54,0.00,,,0.00,meteohub,2013-03-12 05:38:00,
2013-03-12 01:43:00,36.5,20.7,29.73,WSW,248,10.0,14.0,52,0.00,,,0.00,meteohub,2013-03-12 05:43:00,
2013-03-12 01:49:00,36.7,19.8,29.73,West,270,17.0,20.0,50,0.00,,,0.00,meteohub,2013-03-12 05:49:00,
2013-03-12 01:54:00,36.7,19.8,29.73,WNW,292,8.0,21.0,50,0.00,,,0.00,meteohub,2013-03-12 05:54:00,
2013-03-12 01:59:00,36.7,19.8,29.73,WNW,292,8.0,21.0,50,0.00,,,0.00,meteohub,2013-03-12 05:59:00,
2013-03-12 02:04:00,36.5,19.2,29.73,West,270,13.0,21.0,49,0.00,,,0.00,meteohub,2013-03-12 06:04:00,
2013-03-12 02:09:00,36.7,18.9,29.73,WNW,292,12.0,21.0,48,0.00,,,0.00,meteohub,2013-03-12 06:09:00,
2013-03-12 02:15:00,36.5,19.2,29.73,WSW,248,7.0,18.0,49,0.00,,,0.00,meteohub,2013-03-12 06:15:00,
2013-03-12 02:20:00,36.3,19.6,29.73,WNW,292,9.0,17.0,50,0.00,,,0.00,meteohub,2013-03-12 06:20:00,
2013-03-12 02:25:00,36.3,19.6,29.73,WNW,292,7.0,17.0,50,0.00,,,0.00,meteohub,2013-03-12 06:25:00,
2013-03-12 02:31:00,36.1,19.8,29.73,WNW,292,6.0,17.0,51,0.00,,,0.00,meteohub,2013-03-12 06:31:00,
2013-03-12 02:36:00,36.1,19.8,29.73,WNW,292,6.0,11.0,51,0.00,,,0.41,meteohub,2013-03-12 06:36:00,
2013-03-12 02:41:00,36.1,19.8,29.73,WNW,292,6.0,11.0,51,0.00,,,0.00,meteohub,2013-03-12 06:41:00,
2013-03-12 02:47:00,36.0,19.6,29.73,NW,315,10.0,10.0,51,0.00,,,0.00,meteohub,2013-03-12 06:47:00,
2013-03-12 02:52:00,36.0,20.1,29.73,WNW,292,9.0,11.0,52,0.00,,,0.00,meteohub,2013-03-12 06:52:00,
2013-03-12 02:57:00,35.8,19.9,29.73,WNW,292,12.0,12.0,52,0.00,,,0.00,meteohub,2013-03-12 06:57:00,
2013-03-12 03:02:00,35.6,20.1,29.73,WNW,292,11.0,16.0,53,0.00,,,0.00,meteohub,2013-03-12 07:02:00,
2013-03-12 03:07:00,35.6,20.7,29.73,WNW,292,8.0,16.0,54,0.00,,,0.00,meteohub,2013-03-12 07:07:00,
2013-03-12 03:12:00,35.6,20.7,29.73,WNW,292,8.0,16.0,54,0.00,,,0.00,meteohub,2013-03-12 07:12:00,
2013-03-12 03:17:00,35.4,21.4,29.73,WNW,292,11.0,15.0,56,0.00,,,0.00,meteohub,2013-03-12 07:17:00,
2013-03-12 03:22:00,35.4,21.4,29.73,WNW,292,5.0,13.0,56,0.00,,,0.00,meteohub,2013-03-12 07:22:00,
2013-03-12 03:28:00,35.2,21.9,29.73,WNW,292,11.0,13.0,58,0.00,,,0.00,meteohub,2013-03-12 07:28:00,
2013-03-12 03:33:00,35.2,21.6,29.73,West,270,9.0,13.0,57,0.00,,,0.00,meteohub,2013-03-12 07:33:00,
2013-03-12 03:38:00,35.2,21.6,29.73,West,270,10.0,12.0,57,0.00,,,0.00,meteohub,2013-03-12 07:38:00,
2013-03-12 03:44:00,35.1,21.7,29.73,WSW,248,8.0,13.0,58,0.00,,,0.00,meteohub,2013-03-12 07:44:00,
2013-03-12 03:49:00,35.1,21.0,29.73,WNW,292,8.0,13.0,56,0.00,,,0.00,meteohub,2013-03-12 07:49:00,
2013-03-12 03:54:00,35.1,20.1,29.73,WNW,292,11.0,15.0,54,0.00,,,0.00,meteohub,2013-03-12 07:54:00,
2013-03-12 03:59:00,35.1,20.1,29.73,WSW,248,6.0,15.0,54,0.00,,,0.00,meteohub,2013-03-12 07:59:00,
2013-03-12 04:04:00,35.1,19.8,29.73,WSW,248,9.0,15.0,53,0.00,,,0.00,meteohub,2013-03-12 08:04:00,
2013-03-12 04:09:00,34.9,19.6,29.73,West,270,7.0,15.0,53,0.00,,,0.00,meteohub,2013-03-12 08:09:00,
2013-03-12 04:14:00,34.9,19.0,29.73,WNW,292,11.0,13.0,52,0.00,,,0.00,meteohub,2013-03-12 08:14:00,
2013-03-12 04:19:00,34.9,18.7,29.73,West,270,8.0,11.0,51,0.00,,,0.00,meteohub,2013-03-12 08:19:00,
2013-03-12 04:24:00,34.9,18.7,29.73,West,270,8.0,11.0,51,0.00,,,0.00,meteohub,2013-03-12 08:24:00,
2013-03-12 04:30:00,34.9,19.0,29.73,WSW,248,9.0,11.0,52,0.00,,,0.00,meteohub,2013-03-12 08:30:00,
2013-03-12 04:35:00,34.9,18.7,29.73,West,270,10.0,13.0,51,0.00,,,0.00,meteohub,2013-03-12 08:35:00,
2013-03-12 04:40:00,34.9,18.7,29.73,NW,315,6.0,13.0,51,0.00,,,0.00,meteohub,2013-03-12 08:40:00,
2013-03-12 04:46:00,34.7,18.5,29.73,WNW,292,9.0,13.0,51,0.00,,,0.00,meteohub,2013-03-12 08:46:00,
2013-03-12 04:51:00,34.9,18.1,29.73,West,270,12.0,13.0,50,0.00,,,0.00,meteohub,2013-03-12 08:51:00,
2013-03-12 04:57:00,34.9,18.1,29.73,NW,315,4.0,13.0,50,0.00,,,0.00,meteohub,2013-03-12 08:57:00,
2013-03-12 05:02:00,34.9,18.1,29.73,WNW,292,9.0,13.0,50,0.00,,,0.00,meteohub,2013-03-12 09:02:00,
2013-03-12 05:07:00,34.9,17.8,29.73,WSW,248,8.0,15.0,49,0.00,,,0.00,meteohub,2013-03-12 09:07:00,
2013-03-12 05:12:00,34.9,17.8,29.73,WNW,292,9.0,15.0,49,0.00,,,0.00,meteohub,2013-03-12 09:12:00,
2013-03-12 05:17:00,34.9,18.1,29.73,West,270,6.0,15.0,50,0.00,,,0.00,meteohub,2013-03-12 09:17:00,
2013-03-12 05:23:00,34.9,18.1,29.73,WSW,248,6.0,15.0,50,0.00,,,0.00,meteohub,2013-03-12 09:23:00,
2013-03-12 05:28:00,34.7,18.5,29.76,WSW,248,6.0,11.0,51,0.00,,,0.00,meteohub,2013-03-12 09:28:00,
2013-03-12 05:34:00,34.7,18.0,29.76,WSW,248,8.0,11.0,50,0.00,,,0.00,meteohub,2013-03-12 09:34:00,
2013-03-12 05:39:00,34.7,18.0,29.76,West,270,10.0,11.0,50,0.00,,,0.00,meteohub,2013-03-12 09:39:00,
2013-03-12 05:44:00,34.7,18.0,29.76,WSW,248,6.0,12.0,50,0.00,,,0.00,meteohub,2013-03-12 09:44:00,
2013-03-12 05:49:00,34.7,17.6,29.76,West,270,5.0,12.0,49,0.00,,,0.00,meteohub,2013-03-12 09:49:00,
2013-03-12 05:55:00,34.7,17.6,29.76,WNW,292,10.0,12.0,49,0.00,,,0.00,meteohub,2013-03-12 09:55:00,
2013-03-12 06:00:00,34.7,17.6,29.76,WSW,248,9.0,12.0,49,0.00,,,0.00,meteohub,2013-03-12 10:00:00,
2013-03-12 06:05:00,34.7,17.1,29.76,WSW,248,7.0,11.0,48,0.00,,,0.00,meteohub,2013-03-12 10:05:00,
2013-03-12 06:11:00,34.7,17.1,29.79,WSW,248,5.0,11.0,48,0.00,,,0.00,meteohub,2013-03-12 10:11:00,
2013-03-12 06:16:00,34.7,17.1,29.79,WSW,248,8.0,11.0,48,0.00,,,0.00,meteohub,2013-03-12 10:16:00,
2013-03-12 06:21:00,34.7,16.5,29.79,West,270,10.0,11.0,47,0.00,,,0.00,meteohub,2013-03-12 10:21:00,
2013-03-12 06:27:00,34.7,16.5,29.79,SSE,158,6.0,-999.0,47,0.00,,,0.00,meteohub,2013-03-12 10:27:00,
2013-03-12 06:32:00,34.7,16.5,29.79,WNW,292,8.0,13.0,47,0.00,,,0.00,meteohub,2013-03-12 10:32:00,
2013-03-12 06:37:00,34.7,16.5,29.79,West,270,8.0,13.0,47,0.00,,,0.00,meteohub,2013-03-12 10:37:00,
2013-03-12 06:42:00,34.7,16.5,29.79,WNW,292,10.0,15.0,47,0.00,,,0.00,meteohub,2013-03-12 10:42:00,
2013-03-12 06:48:00,34.7,17.1,29.79,WNW,292,9.0,15.0,48,0.00,,,0.00,meteohub,2013-03-12 10:48:00,
2013-03-12 06:53:00,34.7,17.1,29.79,WSW,248,8.0,12.0,48,0.00,,,0.00,meteohub,2013-03-12 10:53:00,
2013-03-12 06:58:00,34.7,16.5,29.79,West,270,7.0,12.0,47,0.00,,,0.00,meteohub,2013-03-12 10:58:00,
2013-03-12 07:04:00,34.3,20.7,29.79,WNW,292,11.0,12.0,57,0.00,,,0.00,meteohub,2013-03-12 11:04:00,
2013-03-12 07:10:00,33.4,25.7,29.79,West,270,7.0,15.0,73,0.00,,,0.00,meteohub,2013-03-12 11:10:00,
2013-03-12 07:15:00,33.3,26.6,29.79,West,270,6.0,15.0,76,0.00,,,0.00,meteohub,2013-03-12 11:15:00,
2013-03-12 07:20:00,33.3,27.1,29.79,WNW,292,6.0,14.0,78,0.00,,,0.00,meteohub,2013-03-12 11:20:00,
2013-03-12 07:25:00,33.3,27.5,29.79,West,270,6.0,14.0,79,0.00,,,0.00,meteohub,2013-03-12 11:25:00,
2013-03-12 07:30:00,33.3,26.6,29.76,West,270,10.0,14.0,76,0.00,,,0.00,meteohub,2013-03-12 11:30:00,
2013-03-12 07:36:00,33.3,25.9,29.76,WNW,292,7.0,13.0,74,0.00,,,0.00,meteohub,2013-03-12 11:36:00,
2013-03-12 07:42:00,33.3,22.8,29.79,WNW,292,10.0,13.0,65,0.00,,,0.00,meteohub,2013-03-12 11:42:00,
2013-03-12 07:47:00,33.3,20.8,29.79,WNW,292,8.0,13.0,60,0.00,,,0.00,meteohub,2013-03-12 11:47:00,
2013-03-12 07:52:00,33.4,19.4,29.79,WNW,292,9.0,13.0,56,0.00,,,0.00,meteohub,2013-03-12 11:52:00,
2013-03-12 07:57:00,33.6,19.6,29.79,WSW,248,9.0,13.0,56,0.00,,,0.00,meteohub,2013-03-12 11:57:00,
2013-03-12 08:02:00,33.6,18.3,29.79,WNW,292,6.0,13.0,53,0.00,,,0.00,meteohub,2013-03-12 12:02:00,
2013-03-12 08:07:00,33.6,18.0,29.79,WNW,292,6.0,13.0,52,0.00,,,0.00,meteohub,2013-03-12 12:07:00,
2013-03-12 08:12:00,33.6,18.0,29.79,WNW,292,6.0,12.0,52,0.00,,,0.00,meteohub,2013-03-12 12:12:00,
2013-03-12 08:17:00,33.6,17.1,29.79,WNW,292,8.0,12.0,50,0.00,,,0.00,meteohub,2013-03-12 12:17:00,
2013-03-12 08:22:00,33.8,16.2,29.79,WNW,292,6.0,9.0,48,0.00,,,0.00,meteohub,2013-03-12 12:22:00,
2013-03-12 08:28:00,33.8,15.8,29.82,WSW,248,4.0,9.0,47,0.00,,,0.00,meteohub,2013-03-12 12:28:00,
2013-03-12 08:34:00,33.8,15.3,29.82,WNW,292,12.0,12.0,46,0.00,,,0.00,meteohub,2013-03-12 12:34:00,
2013-03-12 08:39:00,33.8,15.3,29.82,WNW,292,10.0,12.0,46,0.00,,,0.00,meteohub,2013-03-12 12:39:00,
2013-03-12 08:44:00,33.8,15.3,29.82,WSW,248,11.0,12.0,46,0.00,,,0.00,meteohub,2013-03-12 12:44:00,
2013-03-12 08:50:00,33.8,16.7,29.82,West,270,11.0,12.0,49,0.00,,,0.00,meteohub,2013-03-12 12:50:00,
2013-03-12 08:55:00,33.8,16.7,29.82,WNW,292,8.0,11.0,49,0.00,,,0.00,meteohub,2013-03-12 12:55:00,
2013-03-12 09:00:00,33.6,17.1,29.82,West,270,7.0,11.0,50,0.00,,,0.00,meteohub,2013-03-12 13:00:00,
2013-03-12 09:05:00,33.6,18.0,29.82,WNW,292,8.0,11.0,52,0.00,,,0.00,meteohub,2013-03-12 13:05:00,
2013-03-12 09:11:00,33.4,19.0,29.85,WNW,292,8.0,13.0,55,0.00,,,0.00,meteohub,2013-03-12 13:11:00,
2013-03-12 09:16:00,33.4,20.3,29.85,WNW,292,4.0,13.0,58,0.00,,,0.00,meteohub,2013-03-12 13:16:00,
2013-03-12 09:22:00,33.4,20.7,29.85,WNW,292,5.0,13.0,59,0.00,,,0.00,meteohub,2013-03-12 13:22:00,
2013-03-12 09:27:00,33.4,20.7,29.82,WNW,292,8.0,13.0,59,0.00,,,0.00,meteohub,2013-03-12 13:27:00,
2013-03-12 09:32:00,33.4,20.3,29.82,WNW,292,6.0,13.0,58,0.00,,,0.00,meteohub,2013-03-12 13:32:00,
2013-03-12 09:37:00,33.6,20.1,29.82,WNW,292,6.0,9.0,57,0.00,,,0.00,meteohub,2013-03-12 13:37:00,
2013-03-12 09:42:00,33.6,20.1,29.82,West,270,5.0,9.0,57,0.00,,,0.00,meteohub,2013-03-12 13:42:00,
2013-03-12 09:47:00,33.6,20.1,29.82,WNW,292,8.0,9.0,57,0.00,,,0.00,meteohub,2013-03-12 13:47:00,
2013-03-12 09:52:00,33.6,19.6,29.82,WNW,292,5.0,9.0,56,0.00,,,0.00,meteohub,2013-03-12 13:52:00,
2013-03-12 09:57:00,33.6,19.6,29.85,WNW,292,4.0,11.0,56,0.00,,,0.00,meteohub,2013-03-12 13:57:00,
2013-03-12 10:02:00,33.8,19.0,29.85,WSW,248,5.0,11.0,54,0.00,,,0.00,meteohub,2013-03-12 14:02:00,
2013-03-12 10:07:00,33.8,19.0,29.85,WSW,248,10.0,11.0,54,0.00,,,0.00,meteohub,2013-03-12 14:07:00,
2013-03-12 10:13:00,33.6,19.2,29.85,WSW,248,10.0,10.0,55,0.00,,,0.00,meteohub,2013-03-12 14:13:00,
2013-03-12 10:18:00,33.4,21.0,29.85,WNW,292,9.0,13.0,60,0.00,,,0.00,meteohub,2013-03-12 14:18:00,
2013-03-12 10:23:00,33.4,20.3,29.85,WNW,292,9.0,13.0,58,0.00,,,0.00,meteohub,2013-03-12 14:23:00,
2013-03-12 10:28:00,33.6,20.1,29.85,WNW,292,4.0,13.0,57,0.00,,,0.00,meteohub,2013-03-12 14:28:00,
2013-03-12 10:34:00,33.6,19.2,29.85,WNW,292,9.0,13.0,55,0.00,,,0.00,meteohub,2013-03-12 14:34:00,
2013-03-12 10:39:00,33.6,18.9,29.85,WNW,292,10.0,14.0,54,0.00,,,0.00,meteohub,2013-03-12 14:39:00,
2013-03-12 10:44:00,33.8,19.0,29.85,WNW,292,6.0,11.0,54,0.00,,,0.00,meteohub,2013-03-12 14:44:00,
2013-03-12 10:49:00,33.8,19.4,29.85,NW,315,7.0,11.0,55,0.00,,,0.00,meteohub,2013-03-12 14:49:00,
2013-03-12 10:55:00,33.6,19.2,29.85,NNW,338,8.0,12.0,55,0.00,,,0.00,meteohub,2013-03-12 14:55:00,
2013-03-12 11:00:00,33.3,20.5,29.85,WNW,292,9.0,12.0,59,0.00,,,0.00,meteohub,2013-03-12 15:00:00,
2013-03-12 11:05:00,33.3,22.5,29.85,West,270,6.0,12.0,64,0.00,,,0.00,meteohub,2013-03-12 15:05:00,
2013-03-12 11:10:00,32.9,23.9,29.85,WNW,292,8.0,13.0,69,0.00,,,0.00,meteohub,2013-03-12 15:10:00,
2013-03-12 11:16:00,32.7,24.8,29.85,WNW,292,8.0,13.0,72,0.00,,,0.00,meteohub,2013-03-12 15:16:00,
2013-03-12 11:22:00,32.7,25.7,29.85,NW,315,6.0,12.0,75,0.00,,,0.00,meteohub,2013-03-12 15:22:00,
2013-03-12 11:27:00,32.7,26.1,29.88,WNW,292,8.0,12.0,76,0.00,,,0.00,meteohub,2013-03-12 15:27:00,
2013-03-12 11:32:00,33.1,26.4,29.88,WNW,292,9.0,12.0,76,0.00,,,0.00,meteohub,2013-03-12 15:32:00,
2013-03-12 11:37:00,32.9,25.5,29.88,NW,315,10.0,10.0,74,0.00,,,0.00,meteohub,2013-03-12 15:37:00,
2013-03-12 11:42:00,32.9,21.7,29.85,West,270,8.0,9.0,63,0.00,,,0.00,meteohub,2013-03-12 15:42:00,
2013-03-12 11:48:00,33.3,20.8,29.85,WNW,292,4.0,13.0,60,0.00,,,0.00,meteohub,2013-03-12 15:48:00,
2013-03-12 11:53:00,33.6,18.9,29.85,West,270,5.0,13.0,54,0.00,,,0.00,meteohub,2013-03-12 15:53:00,
2013-03-12 11:58:00,33.8,17.6,29.85,WNW,292,6.0,13.0,51,0.00,,,0.00,meteohub,2013-03-12 15:58:00,
2013-03-12 12:04:00,34.0,16.3,29.85,WNW,292,9.0,13.0,48,0.00,,,0.00,meteohub,2013-03-12 16:04:00,
2013-03-12 12:09:00,34.0,14.9,29.85,WNW,292,10.0,13.0,45,0.00,,,0.00,meteohub,2013-03-12 16:09:00,
2013-03-12 12:14:00,34.0,16.3,29.82,WNW,292,8.0,15.0,48,0.00,,,0.00,meteohub,2013-03-12 16:14:00,
2013-03-12 12:20:00,34.0,16.3,29.82,WNW,292,6.0,15.0,48,0.00,,,0.00,meteohub,2013-03-12 16:20:00,
2013-03-12 12:25:00,34.3,15.3,29.82,WNW,292,6.0,15.0,45,0.00,,,0.00,meteohub,2013-03-12 16:25:00,
2013-03-12 12:30:00,34.5,13.8,29.85,SW,225,9.0,15.0,42,0.00,,,0.00,meteohub,2013-03-12 16:30:00,
2013-03-12 12:36:00,34.5,13.3,29.85,SSW,202,8.0,15.0,41,0.00,,,0.00,meteohub,2013-03-12 16:36:00,
2013-03-12 12:41:00,34.7,12.9,29.85,WNW,292,11.0,17.0,40,0.00,,,0.00,meteohub,2013-03-12 16:41:00,
2013-03-12 12:47:00,34.9,13.1,29.85,NW,315,13.0,17.0,40,0.00,,,0.00,meteohub,2013-03-12 16:47:00,
2013-03-12 12:52:00,35.1,13.3,29.85,WSW,248,12.0,14.0,40,0.00,,,0.00,meteohub,2013-03-12 16:52:00,
2013-03-12 12:57:00,34.9,13.1,29.82,WNW,292,9.0,14.0,40,0.00,,,0.00,meteohub,2013-03-12 16:57:00,
2013-03-12 13:02:00,35.1,12.7,29.82,West,270,10.0,14.0,39,0.00,,,0.00,meteohub,2013-03-12 17:02:00,
2013-03-12 13:08:00,35.2,11.7,29.82,WNW,292,15.0,15.0,37,0.00,,,0.00,meteohub,2013-03-12 17:08:00,
2013-03-12 13:27:00,35.4,10.6,29.88,NW,315,13.0,16.0,35,0.00,,,0.00,meteohub,2013-03-12 17:27:00,
2013-03-12 13:32:00,35.6,9.3,29.88,WNW,292,8.0,16.0,33,0.00,,,0.00,meteohub,2013-03-12 17:32:00,
2013-03-12 13:37:00,35.8,10.2,29.88,WNW,292,12.0,16.0,34,0.00,,,0.00,meteohub,2013-03-12 17:37:00,
2013-03-12 13:43:00,35.4,10.6,29.82,WNW,292,13.0,16.0,35,0.00,,,0.00,meteohub,2013-03-12 17:43:00,
2013-03-12 13:48:00,35.4,12.4,29.82,WSW,248,9.0,15.0,38,0.00,,,0.00,meteohub,2013-03-12 17:48:00,
2013-03-12 13:53:00,34.9,14.2,29.82,SW,225,10.0,15.0,42,0.00,,,0.00,meteohub,2013-03-12 17:53:00,
2013-03-12 13:59:00,34.7,14.5,29.85,WNW,292,10.0,17.0,43,0.00,,,0.00,meteohub,2013-03-12 17:59:00,
2013-03-12 14:04:00,34.7,15.1,29.85,WNW,292,9.0,17.0,44,0.00,,,0.00,meteohub,2013-03-12 18:04:00,
2013-03-12 14:09:00,34.9,14.2,29.85,WNW,292,10.0,17.0,42,0.00,,,0.00,meteohub,2013-03-12 18:09:00,
2013-03-12 14:14:00,34.9,14.2,29.85,West,270,8.0,14.0,42,0.00,,,0.00,meteohub,2013-03-12 18:14:00,
2013-03-12 14:19:00,34.7,14.0,29.85,West,270,8.0,14.0,42,0.00,,,0.00,meteohub,2013-03-12 18:19:00,
2013-03-12 14:25:00,34.5,13.8,29.85,WNW,292,6.0,14.0,42,0.00,,,0.00,meteohub,2013-03-12 18:25:00,
2013-03-12 14:30:00,34.5,13.8,29.85,WNW,292,11.0,14.0,42,0.00,,,0.00,meteohub,2013-03-12 18:30:00,
2013-03-12 14:35:00,34.3,14.2,29.85,WNW,292,10.0,15.0,43,0.00,,,0.00,meteohub,2013-03-12 18:35:00,
2013-03-12 14:40:00,34.0,13.3,29.85,West,270,8.0,15.0,42,0.00,,,0.00,meteohub,2013-03-12 18:40:00,
2013-03-12 14:46:00,34.2,13.5,29.82,WNW,292,10.0,20.0,42,0.00,,,0.00,meteohub,2013-03-12 18:46:00,
2013-03-12 14:52:00,34.3,14.2,29.82,WNW,292,9.0,20.0,43,0.00,,,0.00,meteohub,2013-03-12 18:52:00,
2013-03-12 14:57:00,34.3,13.1,29.82,WNW,292,11.0,18.0,41,0.00,,,0.00,meteohub,2013-03-12 18:57:00,
2013-03-12 15:02:00,34.3,13.1,29.82,WNW,292,14.0,18.0,41,0.00,,,0.00,meteohub,2013-03-12 19:02:00,
2013-03-12 15:07:00,34.5,13.3,29.82,WNW,292,8.0,18.0,41,0.00,,,0.00,meteohub,2013-03-12 19:07:00,
2013-03-12 15:12:00,34.7,12.9,29.85,WNW,292,10.0,22.0,40,0.00,,,0.00,meteohub,2013-03-12 19:12:00,
2013-03-12 15:17:00,35.1,13.3,29.85,WSW,248,10.0,22.0,40,0.00,,,0.00,meteohub,2013-03-12 19:17:00,
2013-03-12 15:22:00,34.9,11.8,29.85,WNW,292,9.0,15.0,38,0.00,,,0.00,meteohub,2013-03-12 19:22:00,
2013-03-12 15:27:00,34.9,10.8,29.85,WSW,248,13.0,15.0,36,0.00,,,0.00,meteohub,2013-03-12 19:27:00,
2013-03-12 15:32:00,34.9,10.0,29.85,West,270,13.0,15.0,35,0.00,,,0.00,meteohub,2013-03-12 19:32:00,
2013-03-12 15:37:00,35.1,10.2,29.85,WNW,292,13.0,15.0,35,0.00,,,0.00,meteohub,2013-03-12 19:37:00,
2013-03-12 15:43:00,35.1,9.7,29.85,WNW,292,13.0,15.0,34,0.00,,,0.00,meteohub,2013-03-12 19:43:00,
2013-03-12 15:48:00,34.9,10.8,29.85,WNW,292,13.0,17.0,36,0.00,,,0.00,meteohub,2013-03-12 19:48:00,
2013-03-12 15:53:00,34.7,11.1,29.85,WSW,248,12.0,17.0,37,0.00,,,0.00,meteohub,2013-03-12 19:53:00,
2013-03-12 15:58:00,34.5,12.7,29.85,WNW,292,12.0,16.0,40,0.00,,,0.00,meteohub,2013-03-12 19:58:00,
2013-03-12 16:04:00,34.3,12.6,29.85,WNW,292,8.0,16.0,40,0.00,,,0.00,meteohub,2013-03-12 20:04:00,
2013-03-12 16:09:00,34.2,12.9,29.85,WNW,292,8.0,16.0,41,0.00,,,0.00,meteohub,2013-03-12 20:09:00,
2013-03-12 16:14:00,34.2,12.9,29.85,WNW,292,13.0,13.0,41,0.00,,,0.00,meteohub,2013-03-12 20:14:00,
2013-03-12 16:19:00,34.0,12.7,29.85,WNW,292,12.0,13.0,41,0.00,,,0.00,meteohub,2013-03-12 20:19:00,
2013-03-12 16:25:00,34.0,13.3,29.85,WNW,292,9.0,13.0,42,0.00,,,0.00,meteohub,2013-03-12 20:25:00,
2013-03-12 16:30:00,33.8,13.3,29.85,WSW,248,10.0,13.0,42,0.00,,,0.00,meteohub,2013-03-12 20:30:00,
2013-03-12 16:35:00,33.8,12.7,29.85,WNW,292,8.0,13.0,41,0.00,,,0.00,meteohub,2013-03-12 20:35:00,
2013-03-12 16:41:00,33.8,12.7,29.85,WSW,248,6.0,13.0,41,0.00,,,0.00,meteohub,2013-03-12 20:41:00,
2013-03-12 16:47:00,33.8,12.7,29.85,WSW,248,13.0,13.0,41,0.00,,,0.00,meteohub,2013-03-12 20:47:00,
2013-03-12 16:52:00,33.8,13.3,29.85,WNW,292,6.0,13.0,42,0.00,,,0.00,meteohub,2013-03-12 20:52:00,
2013-03-12 16:57:00,33.8,13.3,29.85,WSW,248,6.0,13.0,42,0.00,,,0.00,meteohub,2013-03-12 20:57:00,
2013-03-12 17:02:00,33.8,12.0,29.85,West,270,11.0,13.0,40,0.00,,,0.00,meteohub,2013-03-12 21:02:00,
2013-03-12 17:07:00,33.8,12.0,29.85,WNW,292,9.0,13.0,40,0.00,,,0.00,meteohub,2013-03-12 21:07:00,
2013-03-12 17:12:00,33.8,12.0,29.85,WSW,248,13.0,13.0,40,0.00,,,0.00,meteohub,2013-03-12 21:12:00,
2013-03-12 17:18:00,33.8,9.7,29.85,NW,315,13.0,14.0,36,0.00,,,0.00,meteohub,2013-03-12 21:18:00,
2013-03-12 17:23:00,34.0,10.6,29.85,WNW,292,10.0,14.0,37,0.00,,,0.00,meteohub,2013-03-12 21:23:00,
2013-03-12 17:29:00,34.0,9.3,29.85,West,270,12.0,14.0,35,0.00,,,0.00,meteohub,2013-03-12 21:29:00,
2013-03-12 17:47:00,34.0,9.3,29.88,WNW,292,9.0,15.0,35,0.00,,,0.00,meteohub,2013-03-12 21:47:00,
2013-03-12 17:52:00,34.0,9.3,29.88,WSW,248,8.0,13.0,35,0.00,,,0.00,meteohub,2013-03-12 21:52:00,
2013-03-12 17:57:00,33.8,8.4,29.88,WNW,292,12.0,13.0,34,0.00,,,0.00,meteohub,2013-03-12 21:57:00,
2013-03-12 18:03:00,33.8,7.9,29.88,WNW,292,10.0,13.0,33,0.00,,,0.00,meteohub,2013-03-12 22:03:00,
2013-03-12 18:08:00,33.8,7.2,29.88,WNW,292,8.0,17.0,32,0.00,,,0.00,meteohub,2013-03-12 22:08:00,
2013-03-12 18:13:00,33.8,6.4,29.88,WNW,292,10.0,17.0,31,0.00,,,0.00,meteohub,2013-03-12 22:13:00,
2013-03-12 18:18:00,33.8,6.4,29.88,WNW,292,10.0,17.0,31,0.00,,,0.00,meteohub,2013-03-12 22:18:00,
2013-03-12 18:23:00,33.8,6.4,29.88,NW,315,11.0,15.0,31,0.00,,,0.00,meteohub,2013-03-12 22:23:00,
2013-03-12 18:29:00,33.8,6.4,29.88,WNW,292,9.0,15.0,31,0.00,,,0.00,meteohub,2013-03-12 22:29:00,
2013-03-12 18:34:00,33.8,7.2,29.88,WNW,292,13.0,15.0,32,0.00,,,0.00,meteohub,2013-03-12 22:34:00,
2013-03-12 18:39:00,33.6,7.0,29.88,WNW,292,8.0,16.0,32,0.00,,,0.00,meteohub,2013-03-12 22:39:00,
2013-03-12 18:45:00,33.6,8.2,29.91,WSW,248,9.0,15.0,34,0.00,,,0.00,meteohub,2013-03-12 22:45:00,
2013-03-12 18:50:00,33.3,9.3,29.91,WSW,248,13.0,15.0,36,0.00,,,0.00,meteohub,2013-03-12 22:50:00,
2013-03-12 18:55:00,33.3,9.9,29.91,NW,315,11.0,13.0,37,0.00,,,0.00,meteohub,2013-03-12 22:55:00,
2013-03-12 19:00:00,33.1,9.7,29.91,WNW,292,13.0,13.0,37,0.00,,,0.00,meteohub,2013-03-12 23:00:00,
2013-03-12 19:05:00,32.9,11.3,29.91,WNW,292,11.0,13.0,40,0.00,,,0.00,meteohub,2013-03-12 23:05:00,
2013-03-12 19:10:00,32.7,11.7,29.91,WNW,292,11.0,14.0,41,0.00,,,0.00,meteohub,2013-03-12 23:10:00,
2013-03-12 19:16:00,32.5,12.6,29.91,WNW,292,10.0,14.0,43,0.00,,,0.00,meteohub,2013-03-12 23:16:00,
2013-03-12 19:21:00,32.5,12.6,29.91,WNW,292,6.0,13.0,43,0.00,,,0.00,meteohub,2013-03-12 23:21:00,
2013-03-12 19:27:00,32.5,13.1,29.91,WNW,292,5.0,13.0,44,0.00,,,0.00,meteohub,2013-03-12 23:27:00,
2013-03-12 19:32:00,32.5,14.2,29.91,WSW,248,5.0,13.0,46,0.00,,,0.00,meteohub,2013-03-12 23:32:00,
2013-03-12 19:37:00,32.5,15.1,29.91,WSW,248,4.0,8.0,48,0.00,,,0.00,meteohub,2013-03-12 23:37:00,
2013-03-12 19:42:00,32.4,15.4,29.91,WSW,248,5.0,6.0,49,0.00,,,0.00,meteohub,2013-03-12 23:42:00,
2013-03-12 20:07:00,31.8,19.9,29.91,WSW,248,6.0,10.0,61,0.00,,,0.00,meteohub,2013-03-13 00:07:00,
2013-03-12 20:13:00,31.6,20.5,29.91,WNW,292,6.0,10.0,63,0.00,,,0.00,meteohub,2013-03-13 00:13:00,
2013-03-12 20:18:00,31.5,21.0,29.91,WSW,248,6.0,9.0,65,0.00,,,0.00,meteohub,2013-03-13 00:18:00,
2013-03-12 20:23:00,31.5,20.3,29.91,WNW,292,3.0,8.0,63,0.00,,,0.00,meteohub,2013-03-13 00:23:00,
2013-03-12 20:29:00,31.5,19.2,29.91,WNW,292,6.0,8.0,60,0.00,,,0.00,meteohub,2013-03-13 00:29:00,
2013-03-12 20:34:00,31.5,19.2,29.91,WNW,292,5.0,8.0,60,0.00,,,0.00,meteohub,2013-03-13 00:34:00,
2013-03-12 20:39:00,31.3,19.0,29.91,WNW,292,4.0,8.0,60,0.00,,,0.00,meteohub,2013-03-13 00:39:00,
2013-03-12 20:44:00,31.3,19.0,29.91,WNW,292,5.0,8.0,60,0.00,,,0.00,meteohub,2013-03-13 00:44:00,
2013-03-12 20:49:00,31.1,18.9,29.91,WNW,292,3.0,6.0,60,0.00,,,0.00,meteohub,2013-03-13 00:49:00,
2013-03-12 21:01:00,31.1,18.5,29.94,WSW,248,1.0,6.0,59,0.00,,,0.00,meteohub,2013-03-13 01:01:00,
2013-03-12 21:06:00,30.9,18.0,29.94,WSW,248,5.0,6.0,58,0.00,,,0.00,meteohub,2013-03-13 01:06:00,
2013-03-12 21:11:00,30.9,18.0,29.94,WNW,292,6.0,6.0,58,0.00,,,0.00,meteohub,2013-03-13 01:11:00,
2013-03-12 21:17:00,30.7,17.4,29.88,WSW,248,3.0,6.0,57,0.00,,,0.00,meteohub,2013-03-13 01:17:00,
2013-03-12 21:22:00,30.7,16.9,29.88,WSW,248,5.0,6.0,56,0.00,,,0.00,meteohub,2013-03-13 01:22:00,
2013-03-12 21:27:00,30.6,16.7,29.88,WSW,248,2.0,6.0,56,0.00,,,0.00,meteohub,2013-03-13 01:27:00,
2013-03-12 21:32:00,30.6,16.3,29.88,West,270,4.0,6.0,55,0.00,,,0.00,meteohub,2013-03-13 01:32:00,
2013-03-12 21:38:00,30.6,15.4,29.88,WSW,248,4.0,6.0,53,0.00,,,0.00,meteohub,2013-03-13 01:38:00,
2013-03-12 21:43:00,30.6,15.1,29.88,West,270,3.0,7.0,52,0.00,,,0.00,meteohub,2013-03-13 01:43:00,
2013-03-12 21:48:00,30.4,14.9,29.88,WSW,248,2.0,7.0,52,0.00,,,0.00,meteohub,2013-03-13 01:48:00,
2013-03-12 22:07:00,30.2,14.7,29.88,West,270,0.0,6.0,52,0.00,,,0.00,meteohub,2013-03-13 02:07:00,
2013-03-12 22:12:00,30.0,14.5,29.88,WSW,248,1.0,4.0,52,0.00,,,0.00,meteohub,2013-03-13 02:12:00,
2013-03-12 22:18:00,30.0,14.5,29.88,WSW,248,0.0,4.0,52,0.00,,,0.00,meteohub,2013-03-13 02:18:00,
2013-03-12 22:23:00,29.8,14.4,29.88,SSW,202,1.0,4.0,52,0.00,,,0.00,meteohub,2013-03-13 02:23:00,
2013-03-12 22:28:00,29.8,14.4,29.88,WSW,248,1.0,4.0,52,0.00,,,0.00,meteohub,2013-03-13 02:28:00,
2013-03-12 22:34:00,29.8,14.4,29.88,WSW,248,0.0,4.0,52,0.00,,,0.00,meteohub,2013-03-13 02:34:00,
2013-03-12 22:39:00,29.8,14.0,29.88,WSW,248,2.0,4.0,51,0.00,,,0.00,meteohub,2013-03-13 02:39:00,
2013-03-12 22:44:00,29.8,14.0,29.91,WSW,248,4.0,4.0,51,0.00,,,0.00,meteohub,2013-03-13 02:44:00,
2013-03-12 22:49:00,30.0,14.2,29.91,SSE,158,3.0,4.0,51,0.00,,,0.00,meteohub,2013-03-13 02:49:00,
2013-03-12 22:55:00,30.0,13.6,29.91,SSW,202,2.0,4.0,50,0.00,,,0.00,meteohub,2013-03-13 02:55:00,
2013-03-12 23:00:00,30.2,13.3,29.91,SSW,202,0.0,4.0,49,0.00,,,0.41,meteohub,2013-03-13 03:00:00,
2013-03-12 23:05:00,30.2,12.9,29.91,WSW,248,3.0,4.0,48,0.00,,,0.41,meteohub,2013-03-13 03:05:00,
2013-03-12 23:11:00,30.2,12.9,29.91,WSW,248,4.0,4.0,48,0.00,,,0.00,meteohub,2013-03-13 03:11:00,
2013-03-12 23:16:00,30.4,12.6,29.91,WSW,248,4.0,4.0,47,0.00,,,0.00,meteohub,2013-03-13 03:16:00,
2013-03-12 23:21:00,30.4,12.0,29.91,WSW,248,2.0,6.0,46,0.00,,,0.00,meteohub,2013-03-13 03:21:00,
2013-03-12 23:26:00,30.4,12.0,29.91,WSW,248,3.0,6.0,46,0.00,,,0.00,meteohub,2013-03-13 03:26:00,
2013-03-12 23:40:00,30.6,12.2,29.91,SSE,158,2.0,4.0,46,0.00,,,0.00,meteohub,2013-03-13 03:40:00,
2013-03-12 23:45:00,30.6,12.2,29.94,WSW,248,3.0,5.0,46,0.00,,,0.00,meteohub,2013-03-13 03:45:00,
2013-03-12 23:50:00,30.6,12.2,29.94,WSW,248,1.0,5.0,46,0.00,,,0.00,meteohub,2013-03-13 03:50:00,
2013-03-12 23:55:00,30.6,12.2,29.91,SSW,202,0.0,5.0,46,0.00,,,0.00,meteohub,2013-03-13 03:55:00,